Lapse_Rate
6.5 6.5 6.5 6.5 6.5 6.5 6.5 6.5 6.5 6.5 6.5 6.5 6.5 6.5 6.7 7.3 7.5 7.7 7.9 8.1 8.2 8.3 7.2 5.4 4.6 7.7 8.9 9.0 7.3 7.5 5.6 8.0 9.3 9.4 9.2 9.8 9.7 9.7 9.7 9.8 9.7 8.0 5.6 3.7
6.5 6.5 6.5 6.5 6.5 6.5 6.5 6.5 6.5 6.5 6.5 6.5 6.9 7.1 6.9 7.2 7.4 7.6 7.9 8.1 8.3 8.5 8.8 8.8 8.9 9.0 9.1 9.2 9.3 9.5 9.4 9.3 9.2 9.5 9.6 9.6 9.7 9.7 9.8 9.8 9.9 9.8 9.7 7.7
6.5 6.5 6.5 6.5 6.5 6.5 6.5 6.5 6.5 6.5 6.5 6.5 6.5 6.5 6.9 7.2 7.5 7.6 7.9 8.2 8.3 8.4 8.6 8.8 9.0 9.2 9.1 9.3 9.5 9.4 9.4 9.4 9.4 9.5 9.5 9.5 9.7 9.7 9.7 9.6 9.8 9.7 9.8 9.5
6.5 6.5 6.5 6.5 6.5 6.5 6.5 6.5 6.5 6.5 6.5 6.5 6.7 7.3 7.5 7.8 7.8 7.8 8.1 8.3 8.4 8.2 8.6 8.9 9.2 9.3 9.4 9.5 9.4 9.3 9.3 9.4 9.4 9.4 9.4 9.6 9.6 9.6 9.6 9.7 9.6 9.5 9.3 9.6
6.5 6.5 6.5 6.5 6.5 6.5 6.5 6.5 6.5 6.5 6.5 6.8 7.3 7.3 7.2 8.0 8.2 8.1 8.3 8.5 8.6 7.7 7.5 9.2 9.3 9.4 9.4 9.3 9.3 8.9 8.0 8.0 8.0 8.5 8.0 8.8 8.5 9.1 9.6 9.5 9.1 8.3 6.8 5.0
6.5 6.5 6.5 6.5 6.5 7.0 6.5 6.5 6.4 6.7 6.5 6.6 7.1 6.5 6.5 8.0 8.2 8.2 8.6 8.9 8.9 9.0 9.1 9.1 9.3 9.5 9.3 9.1 8.3 5.3 5.2 5.4 6.2 5.6 5.0 4.5 5.1 7.2 9.4 9.4 9.4 9.2 7.6 5.5
6.5 6.5 6.5 6.5 6.6 7.1 6.5 6.5 6.9 7.1 7.1 7.0 6.5 7.1 7.7 8.2 8.1 8.6 8.8 9.0 9.3 9.3 9.2 9.3 9.5 9.5 9.2 9.1 5.5 6.1 5.9 5.7 5.5 4.9 4.5 5.4 6.2 7.9 7.6 8.1 9.0 8.8 8.6 8.6
6.5 6.5 6.5 6.9 6.8 6.5 6.6 7.1 7.3 7.3 7.4 7.3 7.7 7.9 8.0 8.1 8.2 8.6 8.8 9.1 9.3 9.2 9.2 9.5 9.7 9.5 9.2 8.8 9.0 8.3 7.3 6.9 6.0 6.1 5.6 4.8 5.4 8.7 8.7 9.3 8.9 8.8 8.8 8.8
6.5 6.5 6.7 7.2 7.0 7.5 7.6 7.3 7.4 7.5 7.8 7.8 7.7 7.9 8.1 8.1 8.5 8.8 9.0 9.2 9.3 9.3 9.2 9.4 9.6 9.6 9.3 9.4 9.6 9.5 9.4 9.0 8.2 6.9 6.7 7.9 8.5 8.5 9.4 9.4 9.3 9.1 9.1 9.0
6.5 6.5 6.6 7.1 7.6 7.8 7.9 7.7 7.9 8.1 8.1 8.1 7.9 8.2 8.2 8.5 8.7 8.8 9.1 9.1 9.3 9.1 9.1 9.1 9.5 9.5 9.5 9.7 9.8 9.6 9.4 9.4 9.3 9.4 9.4 9.6 9.7 9.6 8.7 8.7 9.2 9.1 9.0 8.9
6.5 6.5 6.9 7.3 7.6 7.8 7.9 8.1 8.1 8.3 8.3 8.2 8.3 8.2 8.4 8.5 8.6 8.9 9.1 9.2 9.2 9.1 9.1 9.1 9.4 9.5 9.7 9.7 9.7 9.5 9.4 9.4 9.4 9.4 9.4 9.5 7.4 7.6 9.0 4.9 5.2 7.8 7.8 8.9
6.5 6.8 6.8 6.9 7.7 8.0 7.9 7.9 8.2 8.1 8.2 8.4 8.5 8.4 8.6 8.6 8.8 9.0 9.0 9.1 9.1 9.1 9.2 9.3 9.4 9.5 9.6 9.8 9.7 9.5 9.3 9.4 9.3 9.4 9.4 9.5 9.5 8.4 4.4 4.7 4.7 5.1 5.8 6.4
6.7 7.6 7.6 7.8 8.0 8.3 8.0 8.2 8.4 8.3 8.4 8.3 8.6 8.7 8.7 8.7 8.8 7.9 9.0 9.1 9.1 9.1 9.2 9.3 9.4 9.4 9.7 9.7 9.7 9.5 9.4 9.4 9.4 8.8 9.4 9.3 9.2 9.2 8.8 5.6 5.6 5.9 6.2 6.2
8.0 7.9 7.3 7.8 7.6 8.3 8.4 8.5 8.2 8.6 8.7 8.7 8.7 8.8 8.8 8.8 8.7 8.9 8.9 9.1 9.3 9.3 9.3 9.3 9.3 9.2 9.6 9.7 9.6 9.3 8.3 6.7 8.8 8.5 8.1 7.7 8.4 8.3 8.3 8.9 8.8 8.3 6.7 7.1
7.9 8.1 8.0 8.2 8.4 8.4 8.6 8.6 8.3 8.3 8.4 8.5 8.8 8.7 8.8 8.6 8.7 8.8 9.1 9.3 9.3 9.3 9.2 9.3 9.2 7.7 5.8 6.7 6.1 5.8 6.2 6.7 6.7 7.5 7.1 7.4 7.4 8.8 9.2 9.2 9.1 9.2 9.3 6.7
8.0 8.1 8.1 8.0 8.1 8.2 8.3 8.3 8.1 8.2 8.4 8.5 8.6 8.6 8.8 9.0 9.0 9.0 9.2 9.2 8.9 8.8 9.1 7.5 8.1 5.5 5.9 6.7 7.2 7.6 8.0 7.6 7.6 9.1 8.8 9.1 9.2 9.2 9.2 9.1 9.1 9.0 9.0 9.0
7.6 7.4 7.7 7.7 7.9 8.0 8.1 8.3 8.4 8.4 8.5 8.5 8.6 8.8 8.9 8.8 8.8 8.8 9.0 9.1 6.7 6.4 5.7 5.7 5.3 4.5 4.8 5.7 6.4 9.4 9.3 8.4 7.6 9.2 9.3 9.3 9.2 9.2 9.2 9.2 9.0 9.0 9.1 6.2
8.3 8.2 8.3 8.2 8.1 8.1 8.2 8.4 8.5 8.5 8.4 8.6 8.4 6.9 5.9 6.8 8.0 8.0 7.0 5.4 4.1 4.8 5.2 4.2 3.8 3.3 4.1 5.1 6.2 9.4 9.4 9.3 9.2 9.2 9.2 9.1 9.1 9.2 9.2 9.0 9.0 9.0 9.1 8.2
8.4 8.3 8.4 8.4 8.5 8.5 8.4 8.4 8.5 8.6 6.7 4.7 4.4 4.7 4.8 5.1 5.8 4.9 4.3 3.3 3.6 4.0 3.6 2.9 2.7 3.4 4.2 4.5 6.0 8.8 9.4 9.3 9.3 9.3 9.3 8.5 8.9 9.2 9.0 9.0 9.0 9.0 9.1 9.1
8.4 8.5 8.6 8.5 8.7 8.6 8.4 8.6 7.0 5.6 4.2 3.7 3.9 4.2 4.5 4.5 4.5 4.1 3.9 4.7 5.7 6.4 3.2 3.3 3.4 4.4 4.4 4.3 5.0 9.6 9.4 9.1 9.2 9.1 9.0 9.2 8.9 8.9 9.0 8.6 8.6 9.0 9.0 9.1
8.2 8.3 7.3 7.3 4.3 3.6 3.4 3.4 3.3 3.4 3.1 3.5 4.2 4.5 4.6 3.8 3.6 3.8 4.5 6.0 3.3 3.5 3.9 3.4 5.3 6.0 6.2 6.1 7.0 9.4 9.2 9.0 9.0 9.0 9.0 8.7 8.9 8.9 8.6 8.7 9.0 9.1 9.1 9.3
5.1 3.1 2.8 3.0 3.3 3.0 2.9 2.8 3.3 3.1 3.3 3.5 3.6 3.7 3.1 3.1 3.0 4.2 3.3 7.3 4.5 3.8 4.6 5.7 6.8 6.8 8.1 6.3 9.6 9.2 9.1 9.1 9.0 9.0 9.0 8.8 8.5 8.3 8.7 8.8 9.1 9.2 9.3 9.4
3.8 3.7 3.2 3.2 3.5 3.0 2.8 3.1 3.1 3.4 3.5 3.3 3.1 3.6 5.0 5.1 5.4 6.0 6.3 6.0 5.1 4.9 6.9 7.2 6.2 5.9 5.9 7.8 9.0 8.8 8.8 8.7 8.7 8.4 7.8 7.2 7.1 7.0 7.8 8.6 6.6 7.5 8.2 8.0
3.2 3.3 2.6 2.5 2.7 4.1 3.8 2.9 3.6 3.4 3.3 3.4 3.4 4.1 5.3 5.7 5.9 7.3 6.9 5.6 5.1 5.6 7.7 5.5 5.4 5.9 6.9 8.5 8.5 8.5 8.5 8.2 7.5 6.7 5.7 4.8 6.0 5.7 5.6 5.3 5.1 5.6 5.5 5.1
2.4 2.3 2.6 3.3 5.1 6.0 4.1 3.9 3.7 4.1 5.0 5.2 4.3 4.7 6.1 7.9 7.4 6.9 5.7 5.8 6.0 7.6 6.3 5.9 6.1 7.1 8.3 8.1 7.7 7.1 6.5 5.9 5.7 5.9 5.5 5.2 5.3 5.1 5.3 5.2 4.3 4.2 3.9 4.1
6.3 7.8 6.3 6.2 8.5 8.4 7.3 7.0 8.7 8.5 8.1 5.7 5.8 5.1 5.1 5.4 5.6 5.8 5.8 6.3 7.3 7.0 6.1 6.6 7.3 7.1 6.3 5.9 5.6 5.2 4.8 4.3 4.7 4.0 4.3 4.4 4.2 4.4 3.9 3.5 3.5 3.5 3.3 2.9
5.8 6.2 7.1 7.8 8.0 8.1 8.6 8.5 8.2 7.7 7.0 6.8 6.1 5.6 5.7 6.1 6.3 6.4 6.7 7.6 7.4 6.6 6.0 5.9 5.7 5.4 5.3 4.9 4.5 4.2 3.8 2.5 1.3 3.4 3.4 3.7 3.4 3.7 2.7 2.6 2.6 2.3 2.1 1.9
Wind_Speed
17 19 21 22 22 19 21 21 18 15 22 21 21 16 12 14 12 13 13 13 12 10 9 8 6 6 5 5 6 6 6 7 8 8 9 9 10 11 12 13 13 9 12 14
8 14 19 21 17 16 22 24 25 26 25 20 12 7 3 10 14 14 13 13 12 12 11 9 8 7 5 5 4 5 7 7 7 9 9 9 11 12 13 14 15 15 16 17
19 16 18 19 12 20 24 24 23 21 17 13 8 2 3 9 13 14 13 13 13 11 10 8 8 7 7 6 5 6 6 7 8 8 9 9 10 12 12 13 14 15 16 17
14 14 19 16 17 14 15 15 15 16 14 10 3 7 1 7 12 13 14 14 13 9 9 9 8 7 7 6 6 6 7 7 8 8 9 10 11 12 12 12 13 13 15 16
13 15 17 22 16 15 8 14 13 8 8 6 6 4 4 6 10 12 12 12 12 10 7 10 10 9 8 7 7 7 7 7 8 8 9 9 11 11 10 10 11 12 13 16
9 14 15 11 4 5 1 10 4 1 2 6 7 5 5 11 11 12 13 13 13 14 11 9 9 9 9 8 8 7 6 6 7 8 8 9 9 10 9 9 9 9 11 13
14 13 13 16 9 5 6 2 3 2 4 6 5 4 10 12 12 12 13 14 14 14 11 11 10 9 9 8 7 8 7 6 7 7 7 7 7 6 6 7 8 7 7 9
11 15 14 11 7 5 3 1 3 1 3 5 9 9 12 12 14 13 14 14 14 12 10 11 10 10 10 9 8 8 7 6 5 5 5 5 5 5 6 5 5 5 6 7
7 6 3 3 3 3 1 2 2 1 3 6 8 11 12 13 14 13 14 13 12 11 11 10 10 9 10 9 9 8 7 6 5 5 4 4 5 4 5 5 5 6 6 6
6 5 8 5 4 4 3 2 2 3 5 8 9 11 12 13 13 12 12 12 11 11 11 10 9 7 8 9 9 8 7 6 5 4 3 3 3 4 5 6 5 5 6 7
11 13 6 6 7 7 5 4 5 4 6 7 9 11 12 11 12 11 11 10 10 10 9 10 8 8 8 8 8 7 6 5 4 4 3 5 6 6 5 6 7 6 6 5
5 4 7 2 4 5 6 6 5 6 7 7 9 11 12 11 11 11 11 10 9 9 9 9 9 8 8 7 7 6 5 4 3 3 2 1 4 6 10 8 7 8 9 9
3 3 4 4 5 5 6 5 6 6 7 9 8 9 11 10 11 9 10 10 9 9 8 8 8 8 7 7 6 6 5 4 4 2 3 2 1 1 3 5 5 4 4 6
5 8 5 6 3 6 7 7 6 6 8 8 8 9 10 9 10 10 10 10 9 9 9 9 9 7 6 6 6 4 3 6 2 2 1 1 1 1 2 2 1 2 6 4
7 2 1 6 8 8 8 8 8 8 8 8 8 9 10 10 11 10 10 9 9 9 9 9 9 9 5 3 6 6 5 4 4 3 3 2 2 2 1 2 3 3 3 6
6 4 6 7 8 8 8 8 8 8 9 9 9 9 10 10 10 10 10 10 10 8 9 5 8 8 8 7 7 6 4 4 3 4 3 3 2 2 2 3 3 4 4 4
9 7 7 7 8 8 7 6 7 8 9 9 10 10 10 10 10 10 10 9 6 7 8 7 7 7 6 4 5 5 4 5 4 4 3 3 2 3 3 3 4 4 5 5
2 2 5 8 9 9 8 7 7 9 8 9 9 6 5 5 9 8 7 8 7 6 6 7 8 7 6 6 6 3 4 4 5 4 3 3 3 3 3 4 4 5 5 1
4 7 7 9 10 9 9 8 8 7 7 8 7 6 5 5 7 8 9 8 7 8 7 7 9 8 7 6 5 4 4 3 3 3 3 1 3 4 3 3 4 5 6 5
8 7 8 9 8 8 8 7 9 8 7 7 7 7 7 7 7 8 8 7 3 4 11 10 9 7 7 7 6 4 4 3 3 1 1 3 3 3 3 3 3 4 5 6
8 8 8 7 7 7 7 5 7 6 6 6 6 6 7 8 7 8 8 6 6 7 9 11 7 6 5 6 5 3 4 3 2 2 2 1 2 3 3 3 4 5 6 6
6 5 6 6 6 7 5 6 6 7 7 6 6 7 8 7 7 6 3 1 7 10 7 6 6 7 6 8 4 4 4 3 2 1 1 1 2 2 3 4 5 5 5 6
6 6 6 5 5 7 6 5 5 6 7 7 7 7 6 6 6 5 5 5 7 8 6 6 9 9 10 5 4 3 3 2 1 2 3 3 2 3 3 4 4 5 5 5
7 6 7 6 6 6 6 4 6 6 6 7 6 5 6 5 4 3 6 8 11 8 6 8 9 10 8 4 3 4 3 4 4 3 3 1 2 2 3 3 3 4 4 4
7 6 6 6 6 4 6 6 6 6 7 7 7 6 4 4 3 6 6 7 11 9 8 10 10 9 4 5 5 5 5 4 3 3 2 2 2 2 3 3 3 4 4 5
6 5 5 2 3 4 4 5 4 5 5 6 5 5 5 5 6 7 7 9 8 11 8 7 6 6 6 6 6 5 5 4 3 3 2 2 2 2 2 3 3 4 5 6
5 3 4 4 4 3 3 3 4 4 3 5 6 5 6 6 7 8 10 8 8 8 7 7 6 6 5 5 5 5 5 5 5 3 2 2 2 2 2 3 4 5 5 6
Wind_Direction
275 284 286 285 286 292 284 283 277 298 284 286 284 282 273 187 176 175 184 178 174 169 161 163 159 160 144 128 128 116 78 49 52 57 38 35 36 31 37 31 38 40 53 43
263 271 267 263 263 262 264 268 271 274 280 286 300 338 325 161 169 187 188 182 174 174 159 153 149 139 129 116 99 88 70 71 54 57 50 41 39 42 34 37 32 36 40 43
264 264 272 264 244 237 256 260 263 269 281 312 298 255 232 176 180 189 185 177 174 163 153 147 143 149 141 130 115 92 81 70 60 55 52 47 48 47 44 40 37 33 35 39
264 278 269 270 258 257 249 261 276 281 287 282 359 44 114 176 178 183 177 173 161 153 150 150 147 134 135 122 108 93 77 67 59 55 55 49 47 50 48 42 40 39 33 33
249 253 263 271 235 228 242 277 283 294 307 67 114 143 157 164 167 173 167 158 152 145 154 159 153 147 134 123 110 94 80 72 60 54 51 50 51 46 45 50 45 40 36 33
245 235 255 269 128 79 71 275 70 278 249 151 161 224 105 152 151 150 152 152 154 159 168 163 156 152 141 132 120 103 95 85 78 73 65 58 50 40 43 49 45 48 41 39
230 254 267 282 127 124 250 343 163 291 141 164 195 53 129 134 143 154 157 153 152 161 166 154 162 156 149 140 134 136 129 109 99 87 65 65 57 60 64 49 46 42 57 54
235 250 262 261 111 231 61 138 141 159 128 158 103 130 134 143 146 159 157 152 161 164 157 162 162 162 156 151 150 144 136 129 111 91 90 77 45 68 46 42 58 51 43 53
217 210 359 282 38 96 323 223 194 139 123 133 144 145 146 155 163 164 160 159 165 161 153 160 170 173 166 151 154 153 153 141 129 118 98 66 67 39 34 41 33 27 32 35
271 287 276 198 215 212 196 200 134 119 151 155 159 150 150 166 164 163 161 165 165 156 164 166 172 182 150 160 158 163 163 152 146 130 110 110 94 63 41 20 26 33 26 20
259 260 233 245 232 204 185 167 146 145 153 168 149 156 162 165 163 167 163 159 166 167 169 167 167 174 153 166 170 176 170 155 149 145 165 101 58 22 80 55 30 17 9 41
256 287 289 347 204 176 177 186 164 152 153 149 159 161 165 161 165 166 160 159 165 168 170 166 163 169 165 172 182 178 181 184 149 162 157 160 148 122 71 73 66 51 38 29
274 92 74 106 116 157 176 155 153 156 156 157 156 157 162 159 167 153 156 163 172 167 167 158 167 167 172 174 181 197 198 163 151 217 187 165 189 247 165 148 140 120 77 44
146 135 128 167 150 153 143 134 148 145 148 152 147 151 152 156 147 165 163 166 164 158 161 166 168 165 163 175 191 174 88 47 145 102 120 141 75 45 359 346 283 176 186 202
175 178 56 142 138 149 138 148 149 146 145 147 145 152 153 160 168 165 161 159 157 161 164 169 172 144 154 152 121 138 164 169 177 168 175 154 176 187 250 273 310 307 308 185
172 167 145 156 156 152 153 156 157 153 155 150 151 153 157 160 168 164 159 164 170 175 170 141 144 155 177 177 176 170 189 106 210 179 159 208 204 242 248 273 290 304 316 335
165 170 169 168 165 161 159 162 157 159 153 158 155 157 162 162 158 159 157 162 86 103 115 132 139 152 175 176 201 172 174 164 221 221 213 216 244 259 282 286 297 315 328 80
138 130 176 164 165 163 151 150 147 153 160 154 146 130 108 143 160 148 118 106 119 115 128 141 143 149 168 176 202 200 196 182 193 229 227 225 262 277 289 302 308 312 328 110
144 138 144 153 157 155 152 154 153 143 111 110 119 125 109 94 119 122 131 140 150 153 156 149 153 160 164 176 192 204 199 203 209 217 243 70 256 254 276 294 320 337 339 333
112 123 133 139 140 150 147 134 129 123 123 124 119 128 136 131 133 146 154 164 127 116 141 150 158 162 160 169 209 189 189 186 216 206 259 284 281 295 320 342 333 319 330 327
114 118 103 103 79 56 78 101 112 127 125 126 141 145 144 142 147 152 161 167 140 138 140 153 167 157 169 157 189 147 160 165 180 222 249 273 321 303 338 338 331 327 325 325
113 101 103 103 105 96 90 103 105 118 129 129 112 126 134 141 145 151 53 30 143 153 152 164 171 161 141 162 172 157 173 184 199 231 286 325 345 350 339 334 323 326 328 326
110 116 106 96 106 111 97 93 102 125 134 139 141 149 158 154 163 165 167 131 140 166 160 155 128 143 146 182 150 163 160 142 117 77 64 50 25 359 337 335 342 323 329 332
102 100 104 101 117 129 125 112 116 110 117 118 119 131 144 137 128 87 91 134 132 157 128 124 142 146 168 130 123 109 107 98 93 90 91 27 18 360 352 338 327 328 333 326
104 107 114 132 145 135 129 133 124 130 139 119 124 130 129 111 147 124 125 124 142 127 116 127 136 146 124 109 101 97 86 69 59 83 54 43 5 342 339 348 326 344 324 321
134 121 115 66 103 139 140 173 149 151 138 137 128 119 106 96 108 120 127 136 125 119 127 140 127 102 99 100 103 104 110 118 94 61 63 44 27 348 353 342 324 323 332 331
101 116 122 116 103 104 106 100 136 135 123 132 125 120 124 125 119 122 126 123 112 109 110 108 103 101 109 109 104 101 95 80 40 74 55 35 354 6 357 328 332 331 325 324